SCP
0 0 0 0 0 0 0 0 0 0 0 0 0 0 0 0 0 0 0 0 0 0 0 0 0 0 0 0 0 -0 0 0 0 0 0 0 0 0 0 0 0 0 0 0 0 0 0 0 0 0 0 0 -0 -0
0 0 0 0 0 0 0 0 0 0 0 0 0 0 0 0 0 0 0 0 0 0 -0 0 -0 -0 -0 -0 0 0 -0 0 0 0 0 0 0 0 0 0 0 0 0 0 0 0 0 0 0 0 0 0 0 -0
0 0 0 0 0 0 0 0 0 0 0 0 0 0 0 0 0 0 0 0 0 0 -0 -0 -0 0 0 0 0 0 0 -0 0 0 0 0 0 0 0 0 0 0 0 0 0 0 0 0 0 0 0 0 0 0
0 0 0 0 0 0 0 0 0 0 0 0 0 -0 0 0 0 0 0 0 0 0 0 -0 -0 -0 0 0 0 0 -0 0 0 0 0 0 0 0 0 0 0 0 0 0 0 0 0 0 0 0 0 0 -0 0
0 0 0 0 0 0 0 0 0 0 0 0 0 -0 -0 0 0 0 0 0 0 0 0 -0 -0 0 0 0 -0 -0 0 -0 -0 0 0 0 0 0 0 0 0 0 0 0 0 0 0 0 0 0 0 0 -0 -0
0 0 0 0 0 0 0 0 0 0 0 -0 -0 -0 -0 -0 0 0 0 0 0 0 0 -0 -0 -0 -0 -0 0 -0 0 -0 -0 0 0 0 0 0 0 0 0 0 0 0 0 0 0 0 0 0 -0 0 0 -0
0 0 0 0 0 0 0 0 0 0 0 -0 -0 -0 -0 0 0 0 0 0 0 0 0 0 -0 -0 -0 0 0 -0 -0 -0 -0 0 0 0 0 0 0 0 0 0 0 0 0 0 0 0 0 0 0 0 0 0
0 0 0 0 0 0 0 0 0 0 0 -0 -0 -0 -0 0 0 0 0 0 0 0 0 0 -0 -0 -0 0 0 0 0 0 -0 -0 0 0 0 0 0 0 0 0 -0 0 0 0 0 0 0 0 0 0 0 0
0 0 0 0 0 0 0 0 0 0 -0 -0 -0 -0 0 0 0 0 -0 0 0 0 0 0 -0 -0 -0 0 0 0 0 0 -0 -0 -0 0 0 0 0 0 0 0 0 0 0 0 0 0 0 0 0 0 0 0
0 0 0 0 0 0 0 0 0 0 0 0 0 0 0 0 -0 0 0 0 0 0 0 0 0 -0 -0 0 -0 0 0 0 0 0 0 0 0 0 0 0 0 0 -0 -0 0 0 0 0 0 0 0 0 0 0
0 0 0 0 0 0 0 0 0 0 0 0 0 0 0 0 0 0 0 0 0 0 0 0 0 0 0 0 0 0 0 0 0 0 0 0 0 0 0 0 0 0 0 0 0 0 0 0 0 0 0 0 0 0
0 0 0 0 0 0 0 0 0 0 0 0 0 0 0 0 0 0 0 0 0 0 0 0 0 0 0 0 0 0 0 0 0 0 0 0 0 0 0 0 0 0 -0 -0 0 0 0 0 0 0 0 0 0 0
0 0 0 0 0 0 0 0 0 0 0 0 0 0 0 0 0 0 0 0 0 0 0 0 0 0 0 0 0 0 0 0 0 0 0 0 0 0 0 0 0 0 0 0 0 0 0 0 0 0 0 0 0 0
0 0 0 0 0 0 -0 0 0 0 0 0 0 0 0 0 0 0 0 0 0 0 0 0 0 0 0 0 0 0 0 0 0 0 0 0 0 0 0 0 0 0 0 0 0 -0 -0 -0 -0 -0 0 0 0 0
0 0 0 0 0 0 0 0 0 0 0 0 0 0 0 0 0 0 0 0 0 0 0 0 0 0 0 0 0 0 0 0 0 0 0 0 0 0 0 0 0 0 0 0 0 -0 -0 -0 -0 -0 0 0 0 0
0 0 0 0 0 0 0 0 0 0 0 0 0 0 0 0 0 0 0 0 0 0 0 0 0 -0 0 0 0 0 0 0 0 0 0 0 0 0 0 0 0 0 0 0 -0 -0 -0 -0 0 0 0 0 0 0
0 0 0 0 0 0 0 0 0 0 0 0 0 0 0 0 0 0 0 0 0 0 0 0 0 0 0 0 0 0 0 0 0 0 0 0 0 0 0 0 0 0 0 0 -0 -0 -0 -0 -0 -0 0 0 0 0
0 0 0 0 0 0 0 0 0 0 0 0 0 0 0 0 0 0 0 0 0 0 0 0 0 0 0 0 0 0 0 0 0 0 0 0 0 0 0 0 0 0 0 -0 -0 -0 -0 -0 -0 -0 0 0 0 0
0 0 0 0 0 0 0 0 0 0 0 0 0 0 0 0 0 0 0 0 0 0 0 0 0 0 -0 0 0 0 -0 -0 -0 -0 0 0 0 0 0 0 0 0 0 -0 -0 -0 -0 -0 -0 -0 0 0 0 0
0 0 0 0 0 0 0 0 0 0 0 0 0 0 0 0 0 0 0 0 0 0 0 0 0 0 0 0 0 0 0 -0 -0 0 0 0 0 0 0 0 0 0 0 0 -0 -0 -0 -0 -0 -0 -0 -0 -0 0
0 0 0 0 0 0 0 0 0 0 0 0 0 0 0 0 0 0 0 0 0 0 0 -0 -0 0 0 0 0 0 0 0 -0 0 0 0 0 0 -0 0 0 0 0 0 -0 -0 -0 0 0 -0 -0 -0 -0 -0
0 0 0 0 0 0 0 0 0 0 0 0 0 0 0 0 0 0 0 0 0 0 -0 -0 -0 0 0 0 0 -0 0 -0 -0 -0 0 0 0 0 0 0 0 0 0 0 0 0 -0 0 0 -0 -0 0 -0 -0
0 0 0 0 0 0 -0 -0 -0 -0 -0 -0 -0 -0 -0 0 0 0 0 0 0 0 0 0 0 0 0 0 0 0 0 0 0 0 0 0 0 0 0 0 -0 -0 -0 -0 -0 0 0 -0 0 -0 0 -0 0 0
0 0 0 0 0 -0 -0 -0 -0 -0 -0 -0 -0 0 0 -0 0 0 0 0 0 0 0 -0 0 0 0 0 0 0 0 0 0 0 0 0 0 0 0 0 0 0 0 -0 -0 -0 -0 -0 -0 -0 -0 0 0 0
0 0 0 -0 -0 -0 0 0 0 0 -0 -0 0 0 0 0 0 0 0 0 0 0 0 0 0 0 0 0 0 0 0 0 0 0 0 0 0 0 0 0 0 0 0 -0 -0 -0 -0 -0 -0 -0 -0 0 -0 -0
0 0 -0 -0 -0 -0 0 0 0 -0 -0 -0 0 -0 -0 -0 -0 -0 -0 -0 0 0 0 0 0 0 0 0 0 0 0 0 0 0 0 0 0 -0 0 0 0 0 -0 -0 -0 -0 -0 -0 -0 -0 -0 -0 -0 -0
0 0 -0 -0 -0 -0 -0 -0 -0 -0 -0 -0 0 -0 -0 0 -0 -0 0 0 0 0 0 0 0 0 0 0 0 0 0 0 0 0 0 0 0 0 -0 -0 0 0 -0 -0 -0 -0 -0 -0 -0 -0 -0 -0 -0 -0
0 0 -0 -0 -0 -0 -0 -0 -0 -0 0 0 0 0 0 0 0 0 0 0 0 0 0 0 0 0 0 0 0 0 0 0 0 0 0 0 0 0 0 0 0 0 -0 -0 -0 -0 -0 -0 -0 -0 -0 -0 0 -0
0 -0 -0 -0 -0 -0 -0 0 0 0 0 0 0 0 0 0 0 0 0 0 0 0 0 0 0 0 0 0 0 0 0 0 0 0 0 0 0 0 0 0 0 0 0 -0 -0 -0 -0 -0 -0 -0 -0 -0 -0 -0
0 -0 -0 -0 -0 -0 0 0 0 0 0 0 0 0 0 0 0 0 0 0 0 0 0 0 0 0 0 0 0 0 0 0 0 0 0 0 0 0 0 0 0 0 0 0 -0 -0 -0 -0 -0 -0 -0 -0 -0 -0
0 0 0 0 0 0 0 0 0 0 0 0 0 0 0 0 0 0 0 0 0 0 0 0 0 0 0 0 0 0 0 0 0 0 0 0 0 0 0 0 0 0 0 0 0 -0 -0 -0 -0 -0 -0 -0 -0 -0
0 0 0 0 0 0 0 0 0 0 0 0 0 0 0 0 0 0 0 0 0 0 0 0 0 0 0 0 0 0 0 0 0 0 0 0 0 0 0 0 0 0 0 0 0 0 0 -0 -0 -0 -0 -0 -0 -0
0 0 0 0 0 0 0 0 0 0 0 0 0 0 0 0 0 0 0 0 0 0 0 0 0 0 0 0 0 0 0 0 0 0 0 0 0 0 0 0 0 0 0 0 0 0 0 0 0 0 0 -0 -0 -0
Wind_Speed_500mb
57 54 55 53 47 49 53 52 51 46 42 42 40 38 37 37 39 37 21 24 26 11 39 18 27 22 24 21 11 27 18 7 8 13 7 5 6 5 6 8 6 5 6 5 4 6 6 25 9 3 6 29 48 55
60 56 54 48 46 47 50 51 50 46 40 40 38 34 34 34 35 37 32 30 34 22 28 36 18 27 28 25 20 13 9 7 3 5 4 4 5 4 2 5 9 5 4 9 5 5 13 16 10 13 11 37 41 50
60 56 55 45 44 46 47 49 48 45 38 38 35 33 31 31 31 33 38 27 39 15 27 13 19 34 36 40 21 8 5 11 14 11 4 1 8 5 4 5 5 6 4 7 6 16 19 26 24 18 28 37 42 57
57 57 55 42 39 45 45 47 46 43 36 37 35 33 30 29 28 31 34 19 30 15 7 13 25 34 47 39 30 15 10 15 27 18 8 4 4 9 6 5 6 7 6 12 14 16 28 37 33 35 49 50 55 53
58 60 57 42 37 41 44 45 45 42 35 34 33 31 29 29 25 27 18 8 22 15 9 25 30 33 50 33 29 22 16 21 28 10 6 7 6 6 5 5 9 12 4 1 6 14 32 26 32 38 54 55 52 62
57 63 58 45 34 38 41 41 44 44 37 35 30 30 28 25 19 21 4 5 23 28 10 8 19 27 56 28 26 24 17 21 33 14 9 10 9 4 5 6 27 41 49 27 21 47 51 45 46 50 66 68 67 65
59 63 57 41 31 34 41 41 41 42 37 37 32 30 25 18 14 10 6 12 23 33 5 11 14 20 51 25 20 20 21 16 9 7 13 15 25 19 7 7 19 43 51 44 37 38 43 41 41 56 58 56 49 43
71 60 52 37 30 32 40 43 41 40 35 34 32 23 17 13 14 13 14 15 29 10 4 5 8 14 35 16 15 26 19 11 20 7 7 9 10 11 9 18 26 39 38 40 46 50 53 46 43 44 38 33 37 35
60 53 52 36 28 31 38 40 38 34 31 29 24 15 11 8 4 7 17 20 10 5 4 3 6 8 25 13 11 11 13 6 8 6 7 6 10 11 12 8 7 12 30 39 44 42 39 40 37 33 29 26 26 23
52 50 50 40 28 29 36 37 35 30 25 22 14 5 5 5 11 14 5 3 3 3 3 4 4 6 16 11 8 13 9 5 4 7 5 7 5 11 19 23 30 39 40 34 42 27 26 27 25 22 19 15 12 9
47 49 45 29 30 27 31 31 28 22 16 10 5 5 6 9 4 6 5 2 2 3 1 4 3 7 9 6 6 8 3 3 3 6 4 4 4 5 12 24 29 29 30 32 30 28 22 18 15 11 8 5 2 3
48 45 30 29 27 27 27 26 22 12 11 11 12 13 3 2 3 5 2 2 4 2 1 4 7 6 7 7 6 7 5 2 6 3 4 5 5 18 24 30 33 31 28 28 24 22 18 14 10 5 2 4 6 9
39 28 26 25 26 24 25 24 18 8 8 4 4 3 2 4 1 7 6 4 3 4 1 5 6 4 5 3 4 4 5 5 2 2 4 4 21 26 29 31 31 26 24 23 20 17 13 11 9 7 5 4 6 8
28 20 20 23 22 18 22 20 15 9 3 2 5 6 7 6 6 5 4 3 2 4 4 5 7 3 3 3 2 3 4 3 1 3 5 9 29 30 29 26 24 23 20 19 19 18 17 16 15 13 10 8 8 9
25 18 18 13 9 8 8 3 14 11 6 6 6 7 9 5 5 6 6 3 5 5 5 5 3 3 1 2 3 2 3 3 4 4 4 23 35 36 31 25 20 19 18 20 20 20 20 19 17 15 13 11 10 9
15 10 5 7 6 5 4 9 11 9 5 8 9 7 7 4 6 6 9 6 5 4 5 2 1 3 2 2 2 3 2 2 0 4 6 31 35 33 29 22 16 15 16 20 23 22 19 17 16 14 11 11 10 11
14 7 12 11 6 4 7 9 8 6 8 8 8 12 10 13 10 5 6 4 10 9 2 0 2 3 0 3 3 1 0 2 6 3 19 32 38 33 27 21 16 14 15 19 22 21 17 18 16 11 10 12 13 14
17 15 13 13 8 6 9 14 6 8 11 11 7 5 15 19 6 5 5 13 10 7 3 2 3 3 2 3 2 1 2 5 10 16 26 30 30 27 24 22 21 17 15 18 21 17 11 7 9 9 12 14 15 14
23 22 18 12 8 12 8 10 8 8 12 9 12 18 16 12 11 13 13 18 9 7 12 6 2 2 1 2 2 5 8 10 21 21 29 27 21 21 21 18 16 15 13 15 18 22 26 18 13 11 13 12 13 13
17 17 16 15 14 7 4 6 10 9 5 3 9 11 6 4 4 11 20 19 16 7 3 4 4 3 4 6 13 13 20 25 39 29 17 15 8 16 15 15 16 16 14 12 11 21 22 28 20 15 13 14 14 14
13 15 15 17 16 7 5 5 8 6 5 6 6 3 5 6 7 10 12 19 3 1 3 5 5 8 14 16 16 15 14 24 23 16 14 16 14 19 18 19 17 16 16 15 11 13 19 19 21 19 12 15 16 15
13 20 16 18 7 4 7 9 5 5 6 7 7 4 3 5 6 12 20 5 10 7 4 6 10 10 17 14 7 16 12 12 20 24 20 18 19 29 26 25 23 21 19 20 15 12 17 19 22 24 22 23 23 21
24 22 12 9 6 7 4 8 6 7 4 1 2 3 2 4 7 22 5 8 8 13 12 12 8 14 20 18 20 19 14 9 11 15 19 18 20 26 29 26 25 24 22 18 19 17 14 17 16 21 21 20 20 23
19 13 7 11 12 4 6 8 7 3 2 2 2 3 6 8 12 2 3 4 10 25 20 17 14 12 12 14 15 13 12 1 4 2 13 29 22 21 27 29 27 26 23 19 18 22 23 17 11 12 13 16 19 14
9 9 8 8 9 6 7 6 7 5 4 5 3 3 3 5 4 5 5 7 19 23 23 16 11 7 4 5 7 8 11 18 12 2 5 8 26 22 23 26 28 28 27 30 32 29 30 29 20 15 15 18 15 14
6 11 11 14 8 7 9 7 10 10 3 4 6 5 4 4 4 4 4 14 20 29 21 14 8 7 8 8 8 10 11 11 14 13 10 4 10 27 26 25 26 23 20 24 30 35 33 35 36 25 24 23 23 21
5 7 9 12 6 6 6 6 3 2 8 9 5 8 4 4 4 3 10 16 21 23 14 4 4 2 6 6 4 5 9 13 14 16 22 22 24 15 16 21 23 20 14 4 13 25 31 33 35 40 36 26 26 25
10 5 8 12 11 10 2 4 5 5 4 5 11 7 5 2 4 11 11 16 25 19 9 2 1 5 6 6 7 6 9 9 13 16 20 25 23 21 17 16 32 22 23 18 9 14 23 29 31 36 39 40 37 33
7 8 12 11 9 7 10 2 3 4 4 3 3 4 6 5 13 15 19 24 21 16 9 7 4 5 8 10 13 14 11 5 6 13 22 20 22 19 23 17 36 28 34 29 26 20 16 18 26 30 31 31 33 33
7 18 8 8 4 6 6 7 7 11 7 6 8 9 8 10 12 16 20 23 23 19 15 13 12 11 12 13 16 13 8 6 3 7 19 25 24 20 22 27 16 31 39 37 24 26 27 26 28 32 34 36 37 36
7 18 6 4 4 4 12 18 19 17 9 7 8 6 9 11 15 18 20 21 21 20 17 15 14 14 12 11 10 5 10 13 15 15 13 13 17 20 22 24 31 22 29 43 38 32 34 30 35 37 39 40 40 37
14 13 11 6 5 9 14 10 7 4 1 3 4 5 8 8 9 12 19 23 21 18 16 17 12 11 14 8 4 5 11 18 23 25 28 27 25 22 23 25 26 29 27 25 32 42 43 40 35 37 39 38 37 36
11 16 10 7 7 10 4 6 5 2 2 2 5 7 10 7 6 10 13 16 18 19 20 18 13 11 9 7 7 9 13 13 14 14 16 19 21 26 32 29 31 33 31 29 35 38 47 50 46 40 37 36 37 36
Wind_Direction_500mb
310 315 320 323 322 326 331 336 336 343 340 344 347 351 351 351 353 352 356 344 339 291 296 298 309 302 328 347 338 320 336 23 336 18 7 41 50 38 70 29 20 71 90 67 91 104 136 5 304 310 54 141 147 148
308 306 313 318 314 322 329 332 333 338 337 338 342 344 346 346 349 344 345 347 335 284 286 308 340 1 338 336 299 306 296 302 326 286 292 326 81 60 120 102 19 75 37 133 347 36 0 8 327 316 146 145 143 139
306 302 306 310 310 317 326 328 331 333 333 333 334 337 340 340 341 339 335 343 348 310 314 319 344 2 6 360 334 262 308 341 313 311 311 31 84 330 87 77 121 90 51 88 174 19 39 48 61 81 132 130 133 138
300 297 299 300 304 311 320 321 327 327 329 329 327 333 332 331 332 329 333 343 355 320 304 291 340 2 6 11 4 339 254 357 1 21 16 31 81 358 39 31 55 354 352 125 97 116 82 54 73 95 101 111 115 118
295 294 292 290 292 303 313 320 322 322 323 322 322 326 325 319 326 322 326 17 8 6 300 294 328 358 8 19 36 52 101 35 25 22 8 31 26 48 28 37 13 351 104 96 87 87 106 84 88 103 106 108 114 121
290 295 290 283 285 300 307 314 320 318 317 313 314 319 319 309 322 331 318 297 351 348 311 310 318 340 5 24 42 70 94 61 62 25 9 16 6 44 69 72 18 62 72 83 92 95 100 97 95 104 104 110 112 114
282 287 279 272 276 293 301 306 314 315 314 310 311 318 310 291 293 290 277 295 317 335 297 298 305 338 355 4 10 14 26 47 71 74 31 13 13 28 38 54 20 70 86 85 95 103 78 95 94 100 99 104 107 107
275 282 269 264 270 291 296 306 309 312 314 309 312 316 297 273 276 269 253 284 313 310 279 295 295 321 356 343 351 355 354 38 36 72 44 18 7 51 68 69 76 79 86 82 86 87 92 99 104 105 110 116 116 114
278 269 264 253 265 286 293 304 307 312 312 312 311 307 285 249 230 226 278 297 292 256 288 283 325 317 342 346 337 340 355 41 30 40 37 42 8 43 347 55 55 112 105 109 104 106 106 102 104 105 107 104 108 113
265 252 259 256 255 277 293 300 304 311 318 316 312 253 214 223 278 287 274 256 242 245 266 277 319 300 332 334 334 350 20 22 44 32 7 63 66 52 51 86 96 107 114 118 115 103 107 103 106 107 105 112 125 150
250 243 244 243 261 278 290 295 300 318 323 325 295 246 235 274 269 243 242 263 327 213 300 306 284 311 331 322 329 16 350 354 60 1 60 79 75 48 81 97 103 105 107 107 109 112 112 105 100 93 95 108 145 264
245 238 238 252 272 280 282 290 296 317 328 327 317 305 306 218 204 249 253 252 231 297 230 299 323 290 303 320 300 357 346 329 83 331 78 96 101 130 124 112 104 98 92 92 87 85 80 74 70 56 354 312 298 292
244 228 239 261 270 270 279 277 278 283 310 0 305 312 326 221 191 223 200 184 224 205 261 334 322 306 307 326 280 316 347 40 309 62 83 86 148 144 136 125 112 98 87 84 79 69 58 44 30 18 352 328 309 303
217 225 255 263 275 283 285 277 235 220 217 219 239 276 218 191 232 197 184 173 161 236 288 327 295 320 332 303 336 319 26 262 82 87 81 153 163 155 146 135 117 102 85 69 58 47 39 35 29 18 14 3 351 334
205 226 251 261 276 265 305 233 179 189 183 227 216 241 221 270 245 187 193 206 226 225 268 276 247 284 332 286 0 293 158 62 347 43 74 161 161 160 154 142 117 96 78 60 46 37 31 27 24 15 13 21 33 42
198 209 199 172 200 228 173 171 184 185 243 228 229 254 227 270 212 205 217 242 195 227 205 147 256 252 107 344 53 54 91 161 94 358 125 153 159 160 154 144 123 105 80 58 44 33 29 31 29 25 33 47 54 79
188 192 195 174 183 194 197 206 168 211 234 225 232 237 251 281 256 252 190 160 164 167 186 165 235 77 49 179 132 12 127 327 308 265 152 163 164 161 161 156 145 129 90 63 44 29 31 34 35 46 61 63 83 96
179 171 183 201 199 200 193 192 215 229 243 234 246 281 238 240 247 230 205 164 165 192 159 121 112 239 175 179 183 126 94 81 91 137 151 155 158 166 170 166 158 143 105 77 57 47 63 40 32 78 101 96 99 93
197 187 192 179 173 158 185 197 231 262 237 256 269 274 255 236 240 239 184 161 179 184 152 118 207 212 174 153 254 136 129 139 129 125 132 145 155 164 162 159 157 147 121 92 67 59 56 52 50 92 105 112 114 99
195 195 201 198 180 188 213 214 203 255 270 273 254 256 276 283 208 188 168 165 169 168 150 167 211 199 172 166 162 141 136 133 138 131 133 145 141 171 176 180 176 168 155 124 95 72 69 63 66 96 118 132 128 115
179 193 191 182 192 208 238 241 231 251 288 259 268 246 222 204 143 144 158 151 116 285 204 214 217 184 167 154 145 139 144 170 171 167 164 188 203 190 190 187 186 181 178 163 136 105 81 71 70 71 114 136 138 137
162 153 148 155 163 189 258 228 236 275 254 263 280 220 208 160 165 167 151 153 180 190 199 185 172 168 173 177 166 165 174 183 200 213 231 232 210 206 204 204 198 193 189 186 167 132 106 71 68 69 87 110 121 126
153 151 140 152 160 220 240 197 224 222 246 302 254 226 215 174 166 154 165 174 173 177 162 162 147 182 183 174 152 137 122 150 208 235 233 227 228 223 217 217 215 211 201 188 185 179 158 132 106 81 75 96 115 127
157 157 169 180 196 227 191 216 216 222 256 235 244 234 178 148 157 140 166 193 171 165 158 142 135 138 133 162 191 184 198 104 55 37 229 215 215 213 216 225 231 232 225 210 191 192 193 171 165 157 137 114 111 109
175 203 194 188 198 215 212 186 186 191 241 193 227 194 125 148 162 183 200 197 170 172 165 170 160 146 182 214 207 204 213 211 229 289 74 179 204 219 220 228 239 246 241 227 214 204 197 193 181 182 168 167 156 140
207 198 191 184 175 214 197 189 197 192 209 208 192 157 173 164 171 213 218 175 171 177 168 190 223 269 261 242 231 223 227 228 221 224 227 166 182 212 228 228 236 249 255 236 223 215 210 203 200 196 199 193 194 191
217 211 200 204 209 195 206 198 192 168 196 206 186 169 172 177 188 126 157 165 176 170 151 191 313 90 159 177 213 261 257 247 243 229 220 225 235 253 254 250 217 216 252 214 203 207 212 215 210 211 210 207 204 198
218 193 191 188 196 209 207 149 187 208 220 195 159 185 197 171 132 161 162 171 170 161 170 235 94 142 182 219 260 295 325 287 273 246 224 218 222 246 274 243 189 184 202 216 222 217 214 214 216 217 216 212 211 208
210 204 192 191 184 194 197 223 178 148 171 216 169 140 134 134 153 157 164 167 180 192 226 259 250 264 266 268 277 291 306 305 293 222 211 198 203 206 230 236 208 198 202 200 210 247 224 216 213 211 212 211 208 209
223 194 203 171 197 195 174 182 156 139 141 145 124 122 128 144 169 174 178 187 194 213 229 242 262 272 279 289 289 276 242 216 256 200 199 211 210 217 207 214 219 207 202 192 200 213 197 194 193 196 200 199 198 200
187 178 156 133 127 113 137 134 130 118 106 107 107 125 144 159 172 180 190 198 207 218 230 245 262 273 281 290 279 239 229 217 236 243 236 223 223 223 215 210 209 212 210 212 213 207 205 207 204 202 201 202 205 208
182 183 147 133 136 148 159 166 160 166 183 194 196 165 168 170 201 213 215 215 217 219 243 254 246 250 273 266 260 256 252 256 259 253 250 246 244 243 239 233 237 237 224 206 210 217 212 210 213 211 208 209 211 216
152 138 114 103 121 152 158 131 149 143 167 197 205 221 213 216 222 218 202 205 212 223 239 251 247 226 232 233 248 290 308 309 300 284 267 256 246 242 240 237 233 229 225 231 218 214 216 213 213 216 218 220 222 224
Wind_Speed_850mb
57 54 55 53 47 49 53 52 51 46 42 42 40 38 37 37 39 37 21 24 26 11 39 18 27 22 24 21 11 27 18 7 8 13 7 5 6 5 6 8 6 5 6 5 4 6 6 25 9 3 6 29 48 55
60 56 54 48 46 47 50 51 50 46 40 40 38 34 34 34 35 37 32 30 34 22 28 36 18 27 28 25 20 13 9 7 3 5 4 4 5 4 2 5 9 5 4 9 5 5 13 16 10 13 11 37 41 50
60 56 55 45 44 46 47 49 48 45 38 38 35 33 31 31 31 33 38 27 39 15 27 13 19 34 36 40 21 8 5 11 14 11 4 1 8 5 4 5 5 6 4 7 6 16 19 26 24 18 28 37 42 57
57 57 55 42 39 45 45 47 46 43 36 37 35 33 30 29 28 31 34 19 30 15 7 13 25 34 47 39 30 15 10 15 27 18 8 4 4 9 6 5 6 7 6 12 14 16 28 37 33 35 49 50 55 53
58 60 57 42 37 41 44 45 45 42 35 34 33 31 29 29 25 27 18 8 22 15 9 25 30 33 50 33 29 22 16 21 28 10 6 7 6 6 5 5 9 12 4 1 6 14 32 26 32 38 54 55 52 62
57 63 58 45 34 38 41 41 44 44 37 35 30 30 28 25 19 21 4 5 23 28 10 8 19 27 56 28 26 24 17 21 33 14 9 10 9 4 5 6 27 41 49 27 21 47 51 45 46 50 66 68 67 65
59 63 57 41 31 34 41 41 41 42 37 37 32 30 25 18 14 10 6 12 23 33 5 11 14 20 51 25 20 20 21 16 9 7 13 15 25 19 7 7 19 43 51 44 37 38 43 41 41 56 58 56 49 43
71 60 52 37 30 32 40 43 41 40 35 34 32 23 17 13 14 13 14 15 29 10 4 5 8 14 35 16 15 26 19 11 20 7 7 9 10 11 9 18 26 39 38 40 46 50 53 46 43 44 38 33 37 35
60 53 52 36 28 31 38 40 38 34 31 29 24 15 11 8 4 7 17 20 10 5 4 3 6 8 25 13 11 11 13 6 8 6 7 6 10 11 12 8 7 12 30 39 44 42 39 40 37 33 29 26 26 23
52 50 50 40 28 29 36 37 35 30 25 22 14 5 5 5 11 14 5 3 3 3 3 4 4 6 16 11 8 13 9 5 4 7 5 7 5 11 19 23 30 39 40 34 42 27 26 27 25 22 19 15 12 9
47 49 45 29 30 27 31 31 28 22 16 10 5 5 6 9 4 6 5 2 2 3 1 4 3 7 9 6 6 8 3 3 3 6 4 4 4 5 12 24 29 29 30 32 30 28 22 18 15 11 8 5 2 3
48 45 30 29 27 27 27 26 22 12 11 11 12 13 3 2 3 5 2 2 4 2 1 4 7 6 7 7 6 7 5 2 6 3 4 5 5 18 24 30 33 31 28 28 24 22 18 14 10 5 2 4 6 9
39 28 26 25 26 24 25 24 18 8 8 4 4 3 2 4 1 7 6 4 3 4 1 5 6 4 5 3 4 4 5 5 2 2 4 4 21 26 29 31 31 26 24 23 20 17 13 11 9 7 5 4 6 8
28 20 20 23 22 18 22 20 15 9 3 2 5 6 7 6 6 5 4 3 2 4 4 5 7 3 3 3 2 3 4 3 1 3 5 9 29 30 29 26 24 23 20 19 19 18 17 16 15 13 10 8 8 9
25 18 18 13 9 8 8 3 14 11 6 6 6 7 9 5 5 6 6 3 5 5 5 5 3 3 1 2 3 2 3 3 4 4 4 23 35 36 31 25 20 19 18 20 20 20 20 19 17 15 13 11 10 9
15 10 5 7 6 5 4 9 11 9 5 8 9 7 7 4 6 6 9 6 5 4 5 2 1 3 2 2 2 3 2 2 0 4 6 31 35 33 29 22 16 15 16 20 23 22 19 17 16 14 11 11 10 11
14 7 12 11 6 4 7 9 8 6 8 8 8 12 10 13 10 5 6 4 10 9 2 0 2 3 0 3 3 1 0 2 6 3 19 32 38 33 27 21 16 14 15 19 22 21 17 18 16 11 10 12 13 14
17 15 13 13 8 6 9 14 6 8 11 11 7 5 15 19 6 5 5 13 10 7 3 2 3 3 2 3 2 1 2 5 10 16 26 30 30 27 24 22 21 17 15 18 21 17 11 7 9 9 12 14 15 14
23 22 18 12 8 12 8 10 8 8 12 9 12 18 16 12 11 13 13 18 9 7 12 6 2 2 1 2 2 5 8 10 21 21 29 27 21 21 21 18 16 15 13 15 18 22 26 18 13 11 13 12 13 13
17 17 16 15 14 7 4 6 10 9 5 3 9 11 6 4 4 11 20 19 16 7 3 4 4 3 4 6 13 13 20 25 39 29 17 15 8 16 15 15 16 16 14 12 11 21 22 28 20 15 13 14 14 14
13 15 15 17 16 7 5 5 8 6 5 6 6 3 5 6 7 10 12 19 3 1 3 5 5 8 14 16 16 15 14 24 23 16 14 16 14 19 18 19 17 16 16 15 11 13 19 19 21 19 12 15 16 15
13 20 16 18 7 4 7 9 5 5 6 7 7 4 3 5 6 12 20 5 10 7 4 6 10 10 17 14 7 16 12 12 20 24 20 18 19 29 26 25 23 21 19 20 15 12 17 19 22 24 22 23 23 21
24 22 12 9 6 7 4 8 6 7 4 1 2 3 2 4 7 22 5 8 8 13 12 12 8 14 20 18 20 19 14 9 11 15 19 18 20 26 29 26 25 24 22 18 19 17 14 17 16 21 21 20 20 23
19 13 7 11 12 4 6 8 7 3 2 2 2 3 6 8 12 2 3 4 10 25 20 17 14 12 12 14 15 13 12 1 4 2 13 29 22 21 27 29 27 26 23 19 18 22 23 17 11 12 13 16 19 14
9 9 8 8 9 6 7 6 7 5 4 5 3 3 3 5 4 5 5 7 19 23 23 16 11 7 4 5 7 8 11 18 12 2 5 8 26 22 23 26 28 28 27 30 32 29 30 29 20 15 15 18 15 14
6 11 11 14 8 7 9 7 10 10 3 4 6 5 4 4 4 4 4 14 20 29 21 14 8 7 8 8 8 10 11 11 14 13 10 4 10 27 26 25 26 23 20 24 30 35 33 35 36 25 24 23 23 21
5 7 9 12 6 6 6 6 3 2 8 9 5 8 4 4 4 3 10 16 21 23 14 4 4 2 6 6 4 5 9 13 14 16 22 22 24 15 16 21 23 20 14 4 13 25 31 33 35 40 36 26 26 25
10 5 8 12 11 10 2 4 5 5 4 5 11 7 5 2 4 11 11 16 25 19 9 2 1 5 6 6 7 6 9 9 13 16 20 25 23 21 17 16 32 22 23 18 9 14 23 29 31 36 39 40 37 33
7 8 12 11 9 7 10 2 3 4 4 3 3 4 6 5 13 15 19 24 21 16 9 7 4 5 8 10 13 14 11 5 6 13 22 20 22 19 23 17 36 28 34 29 26 20 16 18 26 30 31 31 33 33
7 18 8 8 4 6 6 7 7 11 7 6 8 9 8 10 12 16 20 23 23 19 15 13 12 11 12 13 16 13 8 6 3 7 19 25 24 20 22 27 16 31 39 37 24 26 27 26 28 32 34 36 37 36
7 18 6 4 4 4 12 18 19 17 9 7 8 6 9 11 15 18 20 21 21 20 17 15 14 14 12 11 10 5 10 13 15 15 13 13 17 20 22 24 31 22 29 43 38 32 34 30 35 37 39 40 40 37
14 13 11 6 5 9 14 10 7 4 1 3 4 5 8 8 9 12 19 23 21 18 16 17 12 11 14 8 4 5 11 18 23 25 28 27 25 22 23 25 26 29 27 25 32 42 43 40 35 37 39 38 37 36
11 16 10 7 7 10 4 6 5 2 2 2 5 7 10 7 6 10 13 16 18 19 20 18 13 11 9 7 7 9 13 13 14 14 16 19 21 26 32 29 31 33 31 29 35 38 47 50 46 40 37 36 37 36
Wind_Direction_850mb
310 315 320 323 322 326 331 336 336 343 340 344 347 351 351 351 353 352 356 344 339 291 296 298 309 302 328 347 338 320 336 23 336 18 7 41 50 38 70 29 20 71 90 67 91 104 136 5 304 310 54 141 147 148
308 306 313 318 314 322 329 332 333 338 337 338 342 344 346 346 349 344 345 347 335 284 286 308 340 1 338 336 299 306 296 302 326 286 292 326 81 60 120 102 19 75 37 133 347 36 0 8 327 316 146 145 143 139
306 302 306 310 310 317 326 328 331 333 333 333 334 337 340 340 341 339 335 343 348 310 314 319 344 2 6 360 334 262 308 341 313 311 311 31 84 330 87 77 121 90 51 88 174 19 39 48 61 81 132 130 133 138
300 297 299 300 304 311 320 321 327 327 329 329 327 333 332 331 332 329 333 343 355 320 304 291 340 2 6 11 4 339 254 357 1 21 16 31 81 358 39 31 55 354 352 125 97 116 82 54 73 95 101 111 115 118
295 294 292 290 292 303 313 320 322 322 323 322 322 326 325 319 326 322 326 17 8 6 300 294 328 358 8 19 36 52 101 35 25 22 8 31 26 48 28 37 13 351 104 96 87 87 106 84 88 103 106 108 114 121
290 295 290 283 285 300 307 314 320 318 317 313 314 319 319 309 322 331 318 297 351 348 311 310 318 340 5 24 42 70 94 61 62 25 9 16 6 44 69 72 18 62 72 83 92 95 100 97 95 104 104 110 112 114
282 287 279 272 276 293 301 306 314 315 314 310 311 318 310 291 293 290 277 295 317 335 297 298 305 338 355 4 10 14 26 47 71 74 31 13 13 28 38 54 20 70 86 85 95 103 78 95 94 100 99 104 107 107
275 282 269 264 270 291 296 306 309 312 314 309 312 316 297 273 276 269 253 284 313 310 279 295 295 321 356 343 351 355 354 38 36 72 44 18 7 51 68 69 76 79 86 82 86 87 92 99 104 105 110 116 116 114
278 269 264 253 265 286 293 304 307 312 312 312 311 307 285 249 230 226 278 297 292 256 288 283 325 317 342 346 337 340 355 41 30 40 37 42 8 43 347 55 55 112 105 109 104 106 106 102 104 105 107 104 108 113
265 252 259 256 255 277 293 300 304 311 318 316 312 253 214 223 278 287 274 256 242 245 266 277 319 300 332 334 334 350 20 22 44 32 7 63 66 52 51 86 96 107 114 118 115 103 107 103 106 107 105 112 125 150
250 243 244 243 261 278 290 295 300 318 323 325 295 246 235 274 269 243 242 263 327 213 300 306 284 311 331 322 329 16 350 354 60 1 60 79 75 48 81 97 103 105 107 107 109 112 112 105 100 93 95 108 145 264
245 238 238 252 272 280 282 290 296 317 328 327 317 305 306 218 204 249 253 252 231 297 230 299 323 290 303 320 300 357 346 329 83 331 78 96 101 130 124 112 104 98 92 92 87 85 80 74 70 56 354 312 298 292
244 228 239 261 270 270 279 277 278 283 310 0 305 312 326 221 191 223 200 184 224 205 261 334 322 306 307 326 280 316 347 40 309 62 83 86 148 144 136 125 112 98 87 84 79 69 58 44 30 18 352 328 309 303
217 225 255 263 275 283 285 277 235 220 217 219 239 276 218 191 232 197 184 173 161 236 288 327 295 320 332 303 336 319 26 262 82 87 81 153 163 155 146 135 117 102 85 69 58 47 39 35 29 18 14 3 351 334
205 226 251 261 276 265 305 233 179 189 183 227 216 241 221 270 245 187 193 206 226 225 268 276 247 284 332 286 0 293 158 62 347 43 74 161 161 160 154 142 117 96 78 60 46 37 31 27 24 15 13 21 33 42
198 209 199 172 200 228 173 171 184 185 243 228 229 254 227 270 212 205 217 242 195 227 205 147 256 252 107 344 53 54 91 161 94 358 125 153 159 160 154 144 123 105 80 58 44 33 29 31 29 25 33 47 54 79
188 192 195 174 183 194 197 206 168 211 234 225 232 237 251 281 256 252 190 160 164 167 186 165 235 77 49 179 132 12 127 327 308 265 152 163 164 161 161 156 145 129 90 63 44 29 31 34 35 46 61 63 83 96
179 171 183 201 199 200 193 192 215 229 243 234 246 281 238 240 247 230 205 164 165 192 159 121 112 239 175 179 183 126 94 81 91 137 151 155 158 166 170 166 158 143 105 77 57 47 63 40 32 78 101 96 99 93
197 187 192 179 173 158 185 197 231 262 237 256 269 274 255 236 240 239 184 161 179 184 152 118 207 212 174 153 254 136 129 139 129 125 132 145 155 164 162 159 157 147 121 92 67 59 56 52 50 92 105 112 114 99
195 195 201 198 180 188 213 214 203 255 270 273 254 256 276 283 208 188 168 165 169 168 150 167 211 199 172 166 162 141 136 133 138 131 133 145 141 171 176 180 176 168 155 124 95 72 69 63 66 96 118 132 128 115
179 193 191 182 192 208 238 241 231 251 288 259 268 246 222 204 143 144 158 151 116 285 204 214 217 184 167 154 145 139 144 170 171 167 164 188 203 190 190 187 186 181 178 163 136 105 81 71 70 71 114 136 138 137
162 153 148 155 163 189 258 228 236 275 254 263 280 220 208 160 165 167 151 153 180 190 199 185 172 168 173 177 166 165 174 183 200 213 231 232 210 206 204 204 198 193 189 186 167 132 106 71 68 69 87 110 121 126
153 151 140 152 160 220 240 197 224 222 246 302 254 226 215 174 166 154 165 174 173 177 162 162 147 182 183 174 152 137 122 150 208 235 233 227 228 223 217 217 215 211 201 188 185 179 158 132 106 81 75 96 115 127
157 157 169 180 196 227 191 216 216 222 256 235 244 234 178 148 157 140 166 193 171 165 158 142 135 138 133 162 191 184 198 104 55 37 229 215 215 213 216 225 231 232 225 210 191 192 193 171 165 157 137 114 111 109
175 203 194 188 198 215 212 186 186 191 241 193 227 194 125 148 162 183 200 197 170 172 165 170 160 146 182 214 207 204 213 211 229 289 74 179 204 219 220 228 239 246 241 227 214 204 197 193 181 182 168 167 156 140
207 198 191 184 175 214 197 189 197 192 209 208 192 157 173 164 171 213 218 175 171 177 168 190 223 269 261 242 231 223 227 228 221 224 227 166 182 212 228 228 236 249 255 236 223 215 210 203 200 196 199 193 194 191
217 211 200 204 209 195 206 198 192 168 196 206 186 169 172 177 188 126 157 165 176 170 151 191 313 90 159 177 213 261 257 247 243 229 220 225 235 253 254 250 217 216 252 214 203 207 212 215 210 211 210 207 204 198
218 193 191 188 196 209 207 149 187 208 220 195 159 185 197 171 132 161 162 171 170 161 170 235 94 142 182 219 260 295 325 287 273 246 224 218 222 246 274 243 189 184 202 216 222 217 214 214 216 217 216 212 211 208
210 204 192 191 184 194 197 223 178 148 171 216 169 140 134 134 153 157 164 167 180 192 226 259 250 264 266 268 277 291 306 305 293 222 211 198 203 206 230 236 208 198 202 200 210 247 224 216 213 211 212 211 208 209
223 194 203 171 197 195 174 182 156 139 141 145 124 122 128 144 169 174 178 187 194 213 229 242 262 272 279 289 289 276 242 216 256 200 199 211 210 217 207 214 219 207 202 192 200 213 197 194 193 196 200 199 198 200
187 178 156 133 127 113 137 134 130 118 106 107 107 125 144 159 172 180 190 198 207 218 230 245 262 273 281 290 279 239 229 217 236 243 236 223 223 223 215 210 209 212 210 212 213 207 205 207 204 202 201 202 205 208
182 183 147 133 136 148 159 166 160 166 183 194 196 165 168 170 201 213 215 215 217 219 243 254 246 250 273 266 260 256 252 256 259 253 250 246 244 243 239 233 237 237 224 206 210 217 212 210 213 211 208 209 211 216
152 138 114 103 121 152 158 131 149 143 167 197 205 221 213 216 222 218 202 205 212 223 239 251 247 226 232 233 248 290 308 309 300 284 267 256 246 242 240 237 233 229 225 231 218 214 216 213 213 216 218 220 222 224